Regional Weather Roundup
Issued by NWS

Home | Current Version | Previous Version | Text Only | Print | Product List | Glossary Off
Versions: 1 2 3 4 5 6 7 8 9 10 11 12 13 14 15 16 17 18 19 20 21 22 23 24 25 26 27 28 29 30 31 32 33 34 35 36 37 38 39 40 41 42 43 44 45 46 47 48 49 50

000
ASUS43 KFSD 240110
RWRSD

WEATHER ROUNDUP FOR SOUTH DAKOTA
NATIONAL WEATHER SERVICE SIOUX FALLS SD
700 PM CST SUN NOV 23 2014

NOTE: "FAIR" INDICATES FEW OR NO CLOUDS BELOW 12,000 FEET WITH NO
SIGNIFICANT WEATHER AND/OR OBSTRUCTIONS TO VISIBILITY.


SDZ001>005-009-010-012>017-240200-
NORTHWEST AND NORTH CENTRAL SOUTH DAKOTA

CITY           SKY/WX    TMP DP  RH WIND       PRES   REMARKS
BUFFALO          N/A     26  19  74 NW25      29.66F WCI  11
FAITH            N/A     26  16  65 NW29G37   29.69R WCI  10
MOBRIDGE       CLOUDY    26  17  68 NW20G30   29.65S WCI  12
$$

SDZ012>016-024>037-041>051-057-063-072>074-240200-
SOUTHWEST AND SOUTH CENTRAL SOUTH DAKOTA

CITY           SKY/WX    TMP DP  RH WIND       PRES   REMARKS
RAPID CTY ARPT PTCLDY    34  21  59 NW20G28   29.72S WCI  23
PIERRE         CLOUDY    30  19  63 NW29G37   29.67R WCI  15
CUSTER         MOCLDY    27  14  58 NW16G31   29.69R WCI  15
ELLSWORTH AFB  CLEAR     34  22  61 N26G35    29.70S WCI  21
PHILIP         MOCLDY   N/A N/A N/A NW17      29.73R
PINE RIDGE     CLOUDY    36  21  54 W9        29.77R
SPEARFISH      CLOUDY    32  19  59 W16G26    29.75S WCI  21
WINNER         CLOUDY    33  23  66 NW28G36   29.67S WCI  20
$$

SDZ004>011-016>023-039-040-240200-
NORTHEAST SOUTH DAKOTA

CITY           SKY/WX    TMP DP  RH WIND       PRES   REMARKS
ABERDEEN       CLOUDY    25  16  68 NW20G29   29.63R WCI  11
WATERTOWN      CLOUDY    26  20  77 NW25G35   29.54R WCI  11
SISSETON         N/A     27  21  78 NW26G38   29.54R WCI  12
$$

SDZ017-020-022-023-036>040-048>070-240200-
SOUTHEAST SOUTH DAKOTA

CITY           SKY/WX    TMP DP  RH WIND       PRES   REMARKS
SIOUX FALLS    CLOUDY    33  26  75 NW24      29.54R WCI  20
HURON          CLOUDY    28  19  69 N21G30    29.63R WCI  15
CHAMBERLAIN    MOCLDY    29  21  70 NW17      29.66R WCI  18
YANKTON        CLOUDY   N/A N/A N/A NW21G33   29.60R
$$

ABBREVIATIONS USED IN REMARKS
   TC - TEMPERATURE IN CELSIUS
  WCI - WIND CHILL INDEX
   HX - HEAT INDEX
  VSB - VISIBILITY



USA.gov is the U.S. government's official web portal to all federal, state and local government web resources and services.